TimeCST,TemperatureF,Dew PointF,Humidity,Sea Level PressureIn,VisibilityMPH,Wind Direction,Wind SpeedMPH,Gust SpeedMPH,PrecipitationIn,Events,Conditions,WindDirDegrees,DateUTC
12:15 AM,-5.8,-9.4,84,30.24,10.0,Calm,Calm,-,N/A,,Clear,0,2013-02-16 06:15:00
12:35 AM,-5.8,-9.4,84,30.23,10.0,Calm,Calm,-,N/A,,Clear,0,2013-02-16 06:35:00
12:55 AM,-4.0,-7.6,85,30.23,10.0,Calm,Calm,-,N/A,,Clear,0,2013-02-16 06:55:00
1:15 AM,-4.0,-7.6,85,30.22,10.0,Calm,Calm,-,N/A,,Clear,0,2013-02-16 07:15:00
1:35 AM,-4.0,-7.6,85,30.22,10.0,Calm,Calm,-,N/A,,Clear,0,2013-02-16 07:35:00
1:55 AM,-4.0,-7.6,85,30.21,10.0,Calm,Calm,-,N/A,,Clear,0,2013-02-16 07:55:00
2:15 AM,-4.0,-7.6,85,30.21,10.0,Calm,Calm,-,N/A,,Clear,0,2013-02-16 08:15:00
2:35 AM,-5.8,-9.4,84,30.19,10.0,Calm,Calm,-,N/A,,Clear,0,2013-02-16 08:35:00
2:55 AM,-5.8,-9.4,84,30.19,10.0,Calm,Calm,-,N/A,,Clear,0,2013-02-16 08:55:00
3:15 AM,-4.0,-7.6,85,30.19,10.0,Calm,Calm,-,N/A,,Clear,0,2013-02-16 09:15:00
3:55 AM,-4.0,-9.4,78,30.17,10.0,SE,3.5,-,N/A,,Clear,140,2013-02-16 09:55:00
4:15 AM,-4.0,-9.4,78,30.16,10.0,ESE,3.5,-,N/A,,Clear,120,2013-02-16 10:15:00
4:35 AM,-4.0,-9.4,78,30.16,10.0,ESE,4.6,-,N/A,,Clear,120,2013-02-16 10:35:00
4:55 AM,-5.8,-11.2,77,30.15,10.0,ESE,3.5,-,N/A,,Clear,120,2013-02-16 10:55:00
5:15 AM,-9999,-9999,N/A,30.15,10.0,Calm,Calm,-,N/A,,Clear,0,2013-02-16 11:15:00
5:55 AM,-9999,-9999,N/A,30.13,10.0,ESE,5.8,-,N/A,,Clear,120,2013-02-16 11:55:00
6:15 AM,-9999,-9999,N/A,30.12,10.0,ESE,4.6,-,N/A,,Clear,110,2013-02-16 12:15:00
6:55 AM,-9999,-9999,N/A,30.12,10.0,SE,5.8,-,N/A,,Scattered Clouds,140,2013-02-16 12:55:00
7:15 AM,-9999,-9999,N/A,30.12,10.0,SE,6.9,-,N/A,,Clear,140,2013-02-16 13:15:00
7:35 AM,-9999,-9999,N/A,30.12,5.0,SE,6.9,-,N/A,,Mostly Cloudy,130,2013-02-16 13:35:00
7:55 AM,-9999,-9999,N/A,30.11,0.5,SE,9.2,-,N/A,,Overcast,130,2013-02-16 13:55:00
8:15 AM,-9999,-9999,N/A,30.12,0.2,SE,8.1,-,N/A,,Overcast,130,2013-02-16 14:15:00
8:35 AM,-9999,-9999,N/A,30.12,0.5,SE,6.9,-,N/A,,Overcast,130,2013-02-16 14:35:00
8:55 AM,-9999,-9999,N/A,30.11,0.8,SE,6.9,-,N/A,,Overcast,140,2013-02-16 14:55:00
9:15 AM,-9999,-9999,N/A,30.11,0.8,SE,9.2,-,N/A,,Overcast,140,2013-02-16 15:15:00
9:35 AM,-9999,-9999,N/A,30.11,0.8,SE,6.9,-,N/A,,Overcast,140,2013-02-16 15:35:00
12:15 PM,-9999,-9999,N/A,30.09,10.0,SSE,13.8,-,N/A,,Overcast,150,2013-02-16 18:15:00
12:35 PM,-9999,-9999,N/A,30.08,10.0,SSE,12.7,-,N/A,,Overcast,150,2013-02-16 18:35:00
12:55 PM,-9999,-9999,N/A,30.08,10.0,SSE,15.0,-,N/A,,Overcast,150,2013-02-16 18:55:00
1:15 PM,-9999,-9999,N/A,30.07,10.0,SE,13.8,-,N/A,,Overcast,140,2013-02-16 19:15:00
1:35 PM,12.2,10.4,92,30.07,10.0,SE,15.0,-,N/A,,Overcast,140,2013-02-16 19:35:00
1:55 PM,14.0,10.4,86,30.06,10.0,SSE,13.8,-,N/A,,Overcast,150,2013-02-16 19:55:00
2:15 PM,14.0,10.4,86,30.06,10.0,SSE,12.7,-,N/A,,Overcast,150,2013-02-16 20:15:00
2:35 PM,14.0,10.4,86,30.06,10.0,SE,13.8,-,N/A,,Overcast,140,2013-02-16 20:35:00
2:55 PM,14.0,10.4,86,30.06,10.0,SSE,13.8,-,N/A,,Overcast,150,2013-02-16 20:55:00
3:15 PM,14.0,10.4,86,30.06,10.0,SE,16.1,-,N/A,,Overcast,140,2013-02-16 21:15:00
3:55 PM,14.0,10.4,86,30.06,10.0,SSE,13.8,-,N/A,,Overcast,150,2013-02-16 21:55:00
4:15 PM,14.0,10.4,86,30.05,10.0,SE,15.0,-,N/A,,Overcast,140,2013-02-16 22:15:00
4:35 PM,14.0,10.4,86,30.05,7.0,SE,13.8,18.4,N/A,,Overcast,140,2013-02-16 22:35:00
4:55 PM,14.0,10.4,86,30.05,7.0,SE,17.3,-,N/A,,Overcast,140,2013-02-16 22:55:00
5:15 PM,14.0,10.4,86,30.05,7.0,SE,16.1,-,N/A,,Overcast,140,2013-02-16 23:15:00
5:55 PM,14.0,10.4,86,30.05,10.0,SSE,13.8,-,N/A,,Overcast,150,2013-02-16 23:55:00
6:15 PM,15.8,10.4,79,30.06,10.0,SSE,15.0,20.7,N/A,,Overcast,150,2013-02-17 00:15:00
6:35 PM,15.8,10.4,79,30.06,10.0,SE,15.0,19.6,N/A,,Overcast,140,2013-02-17 00:35:00
7:15 PM,15.8,10.4,79,30.05,10.0,SSE,16.1,-,N/A,,Overcast,150,2013-02-17 01:15:00
7:35 PM,15.8,10.4,79,30.05,10.0,SSE,13.8,-,N/A,,Overcast,150,2013-02-17 01:35:00
7:55 PM,14.0,10.4,86,30.04,10.0,SSE,12.7,-,N/A,,Overcast,150,2013-02-17 01:55:00
8:15 PM,14.0,8.6,79,30.03,10.0,SSE,12.7,-,N/A,,Mostly Cloudy,150,2013-02-17 02:15:00
9:15 PM,12.2,8.6,85,30.04,10.0,SSE,11.5,-,N/A,,Overcast,150,2013-02-17 03:15:00
9:55 PM,10.4,5.0,79,30.02,10.0,SSE,10.4,-,N/A,,Scattered Clouds,160,2013-02-17 03:55:00
10:15 PM,8.6,5.0,85,30.01,10.0,SSE,10.4,-,N/A,,Scattered Clouds,150,2013-02-17 04:15:00
10:35 PM,8.6,5.0,85,29.99,10.0,SSE,12.7,-,N/A,,Clear,150,2013-02-17 04:35:00
10:55 PM,8.6,5.0,85,29.99,10.0,SSE,11.5,-,N/A,,Clear,150,2013-02-17 04:55:00
11:15 PM,10.4,5.0,79,29.99,10.0,SSE,13.8,-,N/A,,Mostly Cloudy,160,2013-02-17 05:15:00
11:35 PM,10.4,5.0,79,29.98,10.0,SSE,15.0,-,N/A,,Overcast,160,2013-02-17 05:35:00
11:55 PM,10.4,5.0,79,29.98,10.0,SSE,11.5,-,N/A,,Overcast,160,2013-02-17 05:55:00